Le nostre stazioni meteo in Italia

Pubblicità
Il mio iltempo24.it
Capo Bellavista, Italia (16550): Temperatura & dewpoint: 13.05.2019 21:00:00 - 19.05.2019 21:00:00 (CEST)Capo Bellavista, Italia (16550): velocità del vento: 13.05.2019 21:00:00 - 19.05.2019 21:00:00 (CEST)Capo Bellavista, Italia (16550): direzione del vento: 13.05.2019 21:00:00 - 19.05.2019 21:00:00 (CEST)Capo Bellavista, Italia (16550): reduced air pressure: 13.05.2019 21:00:00 - 19.05.2019 21:00:00 (CEST)Capo Bellavista, Italia (16550): visibility: 13.05.2019 21:00:00 - 19.05.2019 21:00:00 (CEST)Capo Bellavista, Italia (16550): ore di luce: 13.05.2019 21:00:00 - 19.05.2019 21:00:00 (CEST)
Data & Tempo tt [°C] td [°C] ff [km/h] ff [kn] dd ppp [hPa] vv [km] sd [min]
19.05.2019 21:00:00 16,0 4,0 16 9 O 1007,6 30 6
19.05.2019 20:00:00 18,2 3,7 22 12 NO 1007,5 20 60
19.05.2019 19:00:00 19,0 3,3 22 12 NO 1006,9 30 30
19.05.2019 18:00:00 19,0 3,8 34 18 ONO 1006,5 20 30
19.05.2019 17:00:00 20,2 2,4 29 16 O 1006,5 20 30
19.05.2019 16:00:00 19,2 4,7 15 8 NO 1006,5 20 30
19.05.2019 15:00:00 21,4 6,0 13 7 NNE 1006,4 20 54
19.05.2019 14:00:00 20,0 2,7 22 12 N 1006,2 20 24
19.05.2019 13:00:00 16,4 3,1 18 10 O 1007,1 20 12
19.05.2019 12:00:00 17,0 5,0 28 15 NNO 1007,2 30 6
19.05.2019 11:00:00 22,8 7,1 11 6 NNO 1006,2 20 60
19.05.2019 10:00:00 20,2 4,6 11 6 SE 1006,3 20 60
19.05.2019 09:00:00 16,2 4,6 5 3 N 1006,5 20 60
19.05.2019 08:00:00 15,0 4,7 9 5 O 1006,1 20 0
19.05.2019 07:00:00 13,8 4,4 13 7 NO 1006,1 30 0
19.05.2019 06:00:00 15,2 9,6 26 14 ONO 1006,4 20 -
19.05.2019 05:00:00 15,6 9,5 22 12 NNO 1006,4 20 -
19.05.2019 04:00:00 15,6 9,3 21 11 NO 1006,5 20 -
19.05.2019 03:00:00 15,8 10,1 26 14 ONO 1006,3 20 -
19.05.2019 02:00:00 15,8 9,9 21 11 NNO 1006,5 20 -
19.05.2019 01:00:00 16,0 9,7 22 12 NO 1006,5 20 -
19.05.2019 00:00:00 16,0 9,2 18 10 NO 1006,6 20 -
18.05.2019 23:00:00 16,4 9,6 15 8 NO 1006,7 20 -
18.05.2019 22:00:00 16,6 7,8 16 9 O 1006,6 20 -
18.05.2019 21:00:00 16,8 12,4 11 6 SO 1005,8 20 -
18.05.2019 20:00:00 16,8 11,3 16 9 ENE 1005,1 20 0
18.05.2019 19:00:00 17,6 11,6 13 7 E 1004,3 20 0
18.05.2019 18:00:00 18,2 13,7 26 14 ENE 1004,2 20 48
18.05.2019 17:00:00 19,0 13,2 21 11 NE 1003,5 20 60
18.05.2019 16:00:00 19,6 2,9 35 19 ONO 1003,9 20 60
18.05.2019 15:00:00 19,4 3,1 34 18 O 1003,7 20 60
18.05.2019 14:00:00 19,6 2,9 35 19 ONO 1003,5 20 60
18.05.2019 13:00:00 19,6 3,3 31 17 ONO 1003,2 20 60
18.05.2019 12:00:00 19,6 3,3 34 18 ONO 1002,9 20 60
18.05.2019 11:00:00 18,8 4,2 28 15 O 1002,6 20 60
18.05.2019 10:00:00 17,8 4,7 26 14 O 1001,7 20 36
18.05.2019 09:00:00 16,0 12,6 13 7 SO 1001,5 20 54
18.05.2019 08:00:00 15,0 11,6 13 7 SO 1001,6 20 54
18.05.2019 07:00:00 14,8 11,4 24 13 SO 1000,5 10 -
18.05.2019 06:00:00 14,8 11,4 24 13 OSO 1000,5 10 -
18.05.2019 05:00:00 15,0 10,2 34 18 SO 1000,9 10 -
18.05.2019 04:00:00 15,0 10,2 13 7 SSO 1001,3 16 -
18.05.2019 03:00:00 14,8 9,8 31 17 SSO 1001,5 10 -
18.05.2019 02:00:00 15,0 -30,0 34 18 SSO 1002,3 10 -
18.05.2019 01:00:00 15,4 8,2 21 11 SO 1002,9 10 -
18.05.2019 00:00:00 15,2 8,0 31 17 OSO 1002,9 10 -
17.05.2019 23:00:00 14,8 13,5 28 15 SO 1003,4 10 -
17.05.2019 22:00:00 9,8 8,6 21 11 SSO 1003,8 4,0 -
17.05.2019 21:00:00 14,8 13,5 13 7 S 1003,8 4,0 -
17.05.2019 20:00:00 14,8 13,5 15 8 S 1003,8 8 0
17.05.2019 19:00:00 14,8 13,7 18 10 SSO 1004,1 10 0
17.05.2019 18:00:00 15,4 13,8 21 11 S 1004,6 10 0
17.05.2019 17:00:00 15,8 13,7 16 9 S 1005,0 10 0
17.05.2019 16:00:00 17,0 13,5 15 8 O 1005,5 10 0
17.05.2019 15:00:00 18,0 12,9 11 6 SO 1006,2 20 18
17.05.2019 14:00:00 18,6 11,9 13 7 S 1007,4 25 24
17.05.2019 13:00:00 18,6 12,4 9 5 S 1007,4 25 48
17.05.2019 12:00:00 18,0 11,3 16 9 SSO 1007,4 25 60
17.05.2019 11:00:00 16,8 10,7 9 5 S 1007,8 25 60
17.05.2019 10:00:00 14,2 10,2 13 7 S 1008,9 20 60
17.05.2019 09:00:00 13,4 9,3 15 8 SSO 1009,0 20 54
17.05.2019 08:00:00 11,2 8,6 11 6 O 1009,1 20 36
17.05.2019 07:00:00 10,2 8,6 11 6 ONO 1008,9 20 -
17.05.2019 06:00:00 12,0 9,9 8 4 OSO 1009,1 20 -
17.05.2019 05:00:00 13,0 10,5 8 4 S 1009,0 20 -
17.05.2019 04:00:00 13,0 10,5 5 3 S 1009,0 20 -
17.05.2019 03:00:00 13,0 10,5 107 58 O 1009,8 20 -
17.05.2019 02:00:00 13,0 10,5 15 8 NO 1010,8 20 -
17.05.2019 01:00:00 13,0 10,4 15 8 NO 1012,0 20 -
17.05.2019 00:00:00 13,8 11,1 15 8 N 1012,2 20 -
16.05.2019 23:00:00 13,8 11,3 15 8 SO 1012,3 20 -
16.05.2019 22:00:00 13,8 10,2 11 6 SSO 1011,9 20 -
16.05.2019 21:00:00 14,0 9,8 8 4 E 1012,1 20 -
16.05.2019 20:00:00 15,0 9,1 5 3 ESE 1011,8 20 48
16.05.2019 19:00:00 15,6 9,1 11 6 E 1011,6 20 48
16.05.2019 18:00:00 16,0 8,3 15 8 ESE 1011,6 20 60
16.05.2019 17:00:00 16,0 8,2 18 10 E 1011,6 30 60
16.05.2019 16:00:00 16,0 7,7 34 18 ENE 1011,6 20 60
16.05.2019 15:00:00 15,0 8,3 44 24 ENE 1011,6 20 60
16.05.2019 14:00:00 15,0 7,3 46 25 ENE 1011,6 30 60
16.05.2019 13:00:00 16,0 7,2 29 16 ENE 1011,7 30 60
16.05.2019 12:00:00 16,0 7,2 44 24 NNE 1011,7 20 60
16.05.2019 11:00:00 15,0 6,8 46 25 NE 1011,8 20 60
16.05.2019 10:00:00 14,6 5,7 46 25 NNE 1010,9 20 60
16.05.2019 09:00:00 13,4 4,6 46 25 NNE 1010,2 20 60
16.05.2019 08:00:00 12,2 5,6 46 25 NNE 1009,8 20 0
16.05.2019 07:00:00 11,6 5,5 41 22 N 1009,9 20 0
16.05.2019 06:00:00 11,2 5,1 41 22 N 1008,9 20 -
16.05.2019 05:00:00 11,0 4,7 39 21 NNO 1008,1 20 -
16.05.2019 04:00:00 - - - - - - - -
16.05.2019 03:00:00 8,4 5,0 31 17 NO 1010,0 20 -
16.05.2019 02:00:00 8,6 5,0 29 16 NNO 1010,2 20 -
16.05.2019 01:00:00 8,6 4,4 29 16 N 1010,2 20 -
16.05.2019 00:00:00 9,0 3,2 31 17 NNO 1009,9 20 -
15.05.2019 23:00:00 8,8 1,9 29 16 NNO 1009,6 20 -
15.05.2019 22:00:00 8,8 3,0 39 21 NNE 1009,1 20 -
15.05.2019 21:00:00 8,8 4,2 31 17 NNO 1009,0 20 -
15.05.2019 20:00:00 8,4 2,8 21 11 N 1008,8 20 0
15.05.2019 19:00:00 8,4 5,5 29 16 N 1008,6 20 0
15.05.2019 18:00:00 8,4 7,0 42 23 NNE 1008,9 10 0
15.05.2019 17:00:00 8,6 7,8 24 13 N 1009,2 10 0
15.05.2019 16:00:00 8,6 7,8 42 23 NNE 1009,5 10 0
15.05.2019 15:00:00 10,0 9,2 39 21 NE 1009,1 15 0
15.05.2019 14:00:00 10,0 8,8 31 17 NE 1009,2 10 0
15.05.2019 13:00:00 10,6 7,7 28 15 ENE 1010,4 10 0
15.05.2019 12:00:00 12,0 8,7 35 19 ENE 1010,5 10 0
15.05.2019 11:00:00 12,6 6,4 24 13 ENE 1010,5 20 0
15.05.2019 10:00:00 12,4 -30,0 34 18 ENE 1010,6 20 0
15.05.2019 09:00:00 13,2 6,8 29 16 E 1010,9 20 12
15.05.2019 08:00:00 12,8 7,7 34 18 NNE 1010,9 20 0
15.05.2019 07:00:00 13,0 9,6 26 14 E 1011,0 20 -
15.05.2019 06:00:00 13,0 10,0 26 14 ENE 1011,0 20 -
15.05.2019 05:00:00 13,0 8,7 8 4 NNE 1012,0 20 -
15.05.2019 04:00:00 12,8 5,7 16 9 OSO 1012,1 20 -
15.05.2019 03:00:00 12,8 8,5 22 12 NE 1012,4 20 -
15.05.2019 02:00:00 13,8 9,4 37 20 NE 1012,8 20 -
15.05.2019 01:00:00 13,8 7,6 15 8 NNE 1013,6 20 -
15.05.2019 00:00:00 14,0 8,6 18 10 NO 1013,7 20 -
14.05.2019 23:00:00 14,6 8,3 18 10 ONO 1013,7 20 -
14.05.2019 22:00:00 13,8 8,8 34 18 NE 1013,2 20 -
14.05.2019 21:00:00 14,0 7,5 37 20 NE 1013,2 20 -
14.05.2019 20:00:00 14,6 9,2 41 22 NE 1012,8 20 60
14.05.2019 19:00:00 14,8 8,3 55 30 NE 1012,5 20 60
14.05.2019 18:00:00 14,6 9,0 52 28 NE 1012,6 20 60
14.05.2019 17:00:00 15,0 10,0 55 30 NE 1012,5 20 60
14.05.2019 16:00:00 15,0 9,8 44 24 NE 1012,6 20 60
14.05.2019 15:00:00 16,8 9,7 44 24 NE 1012,4 20 60
14.05.2019 14:00:00 16,0 8,7 52 28 NE 1012,5 20 60
14.05.2019 13:00:00 16,8 9,0 48 26 NE 1012,6 20 -
14.05.2019 12:00:00 14,0 8,2 55 30 NE 1013,6 20 54
14.05.2019 11:00:00 14,0 7,3 55 30 NE 1013,6 20 48
14.05.2019 10:00:00 15,0 8,5 59 32 NE 1013,3 20 36
14.05.2019 09:00:00 14,6 9,0 42 23 NNE 1012,9 20 42
14.05.2019 08:00:00 14,0 8,6 41 22 NNE 1012,9 20 -
14.05.2019 07:00:00 13,2 7,9 24 13 N 1012,9 20 -
14.05.2019 06:00:00 13,0 8,5 41 22 NNE 1013,0 20 -
14.05.2019 05:00:00 13,4 9,5 42 23 NNE 1012,8 20 -
14.05.2019 04:00:00 13,6 8,2 34 18 N 1012,9 20 -
14.05.2019 03:00:00 13,4 9,1 50 27 NNE 1012,9 20 -
14.05.2019 02:00:00 13,8 10,4 50 27 NNE 1013,4 20 -
14.05.2019 01:00:00 13,8 10,4 57 31 NE 1013,8 20 -
14.05.2019 00:00:00 13,8 11,3 55 30 NNE 1013,8 20 -
13.05.2019 23:00:00 14,0 8,6 55 30 NNE 1013,8 20 -
13.05.2019 22:00:00 14,2 8,8 54 29 NNE 1013,5 20 -
13.05.2019 21:00:00 14,6 9,8 55 30 NNE 1012,7 20 -

tt = Temperatura
td = dewpoint
ff = velocità del vento
dd = direzione del vento
ppp = reduced air pressure
vv = visibility
sd = ore di luce

Stazioni seguenti

WeatherPro
AMSI
MeteoEarth